Flag for Netherlands Weather past 2 weeks in Groningen, Netherlands

Now
52 °F

More clouds than sun.


Feels Like: 48 °F
Forecast: 51 / 57 °F
Wind: 12 mph from Northwest

Location: Groningen Eelde Airport

Current Time: Oct 22, 2014 at 6:13:04 PM

Latest Report: Oct 22, 2014 at 5:25 PM


Visibility: N/A

Pressure: 30.04 "Hg

Humidity: 67%

Dew point: 41 °F

Location of GroningenLocation

Historic Weather in Groningen — Graph

°F

Groningen temperature yesterday

Maximum temperature yesterday: 55 °F (at 3:55 AM)
Minimum temperature yesterday: 46 °F (at 10:55 PM)
Average temperature yesterday: 53 °F

Past Weeks' High & Low Weather Summary

 TemperatureHumidityPressure
High68 °F (Oct 18, 4:25 PM)100% (Oct 9, 2:25 AM)30.04 "Hg (Oct 9, 2:25 AM)
Low45 °F (Oct 11, 3:55 AM)58% (Oct 22, 11:55 AM)29.33 "Hg (Oct 21, 3:25 PM)
Average56 °F89%29.76 "Hg
* Reported Oct 7 4:25 PM — Oct 22 4:55 PM, Groningen, Weather by CustomWeather, © 2014

Note: Actual official high and low records may vary slightly from our data, if they occured in-between our weather recording intervals... More about our weather records

Advertising

Groningen weather history for previous 24 hours

 ConditionsComfort  
Time TempWeatherWind HumidityBarometerVisibility
4:55 PM
Oct 22
52 °FPartly sunny.16 mph62%30.04 "HgN/A
4:25 PM52 °FOvercast.15 mph72%30.01 "HgN/A
3:55 PM52 °FMostly cloudy.16 mph67%30.01 "HgN/A
3:25 PM52 °FOvercast.18 mph72%30.01 "HgN/A
2:55 PM52 °FBroken clouds.20 mph72%29.98 "HgN/A
2:25 PM54 °FClear.20 mph63%29.98 "HgN/A
1:55 PM54 °FPartly sunny.17 mph63%29.98 "HgN/A
1:25 PM54 °FPassing clouds.21 mph63%29.95 "HgN/A
12:55 PM54 °FPassing clouds.21 mph67%29.95 "HgN/A
12:25 PM54 °FPassing clouds.17 mph72%29.95 "HgN/A
11:55 AM54 °FClear.21 mph58%29.92 "HgN/A
11:25 AM52 °FPassing clouds.21 mph67%29.92 "HgN/A
10:55 AM52 °FPassing clouds.18 mph72%29.89 "HgN/A
10:25 AM50 °FScattered clouds.15 mph82%29.89 "HgN/A
9:55 AM52 °FPassing clouds.22 mph67%29.86 "HgN/A
9:25 AM52 °FScattered clouds.23 mph62%29.86 "HgN/A
8:55 AM50 °FPassing clouds.20 mph67%29.83 "HgN/A
8:25 AM50 °FPassing clouds.20 mph71%29.80 "HgN/A
7:55 AM50 °FPassing clouds.23 mph76%29.80 "Hg5 mi
7:25 AM50 °FClear.21 mph71%29.77 "HgN/A
6:55 AM48 °FPartly cloudy.22 mph82%29.77 "HgN/A
6:25 AM50 °FPartly cloudy.20 mph71%29.77 "HgN/A
5:55 AM48 °FPartly cloudy.12 mph82%29.74 "HgN/A
5:25 AM48 °FPartly cloudy.14 mph82%29.74 "HgN/A
4:55 AM50 °FLight rain. Partly cloudy.15 mph71%29.74 "HgN/A
4:25 AM50 °FPartly cloudy.13 mph76%29.74 "HgN/A
3:55 AM48 °FPassing clouds.14 mph82%29.71 "HgN/A
3:25 AM48 °FSprinkles. Partly cloudy.21 mph87%29.71 "Hg4 mi
2:55 AM50 °FPassing clouds.20 mph76%29.68 "HgN/A
2:25 AM50 °FPartly cloudy.17 mph82%29.68 "HgN/A
1:55 AM50 °FPartly cloudy.18 mph82%29.65 "HgN/A
1:25 AM50 °FPartly cloudy.23 mph82%29.65 "HgN/A
12:55 AM50 °FLight rain. Partly cloudy.17 mph82%29.62 "HgN/A
12:25 AM50 °FRain. Partly cloudy.22 mph88%29.59 "Hg4 mi
11:55 PM
Oct 21
48 °FRain showers. Passing clouds.10 mph94%29.56 "Hg4 mi
11:25 PM48 °FSprinkles. Partly cloudy.13 mph87%29.56 "HgN/A
10:55 PM46 °FSprinkles. Partly cloudy.13 mph93%29.56 "HgN/A
10:25 PM48 °FLight rain. Partly cloudy.16 mph87%29.56 "HgN/A
9:55 PM48 °FRain showers. Partly cloudy.18 mph87%29.53 "Hg4 mi
9:25 PM48 °FClear.12 mph82%29.50 "HgN/A
8:55 PM50 °FPassing clouds.18 mph76%29.50 "HgN/A
8:25 PM50 °FPassing clouds.12 mph76%29.47 "HgN/A
7:55 PM50 °FPassing clouds.13 mph82%29.47 "HgN/A
7:25 PM50 °FLight rain. Overcast.13 mph82%29.47 "HgN/A
6:55 PM50 °FBroken clouds.12 mph82%29.45 "HgN/A
6:25 PM52 °FPassing clouds.15 mph82%29.45 "HgN/A
Weather by CustomWeather, © 2014

See weather overviewHow to use our weather pages